Regional Weather Roundup
Issued by NWS Upton, NY

Current Version | Previous Version | Text Only | Print | Product List | Glossary On
Versions: 1 2 3 4 5 6 7 8 9 10 11 12 13 14 15 16 17 18 19 20 21 22 23 24 25 26 27 28 29 30 31 32 33 34 35 36 37 38 39 40 41 42 43 44 45 46 47 48 49 50
404
ASUS41 KOKX 100604
RWROKX

REGIONAL WEATHER ROUNDUP
NATIONAL WEATHER SERVICE NEW YORK NY
100 AM EST WED FEB 10 2016

NOTE: "FAIR" INDICATES FEW OR NO CLOUDS BELOW 12,000 FEET WITH NO
SIGNIFICANT WEATHER AND/OR OBSTRUCTIONS TO VISIBILITY.

NYZ071-072-176-178-NJZ106-104-100700-
NEW YORK CITY METRO AREA


CITY           SKY/WX    TMP DP  RH WIND       PRES   REMARKS
CENTRAL PARK   CLOUDY    33  26  75 CALM      29.61F
LAGUARDIA APRT CLOUDY    33  25  72 E3        29.60S
KENNEDY INTL   CLOUDY    33  26  75 SE6       29.62S WCI  28
NEWARK/LIBERTY LGT SNOW  32  29  88 W5        29.60F FOG     WCI  27
BRNX BOT. GARD   N/A     32  27  80 E1        29.61R
TETERBORO      CLOUDY    33  26  75 CALM      29.59F
$$

NYZ177-179-078>081-100700-
LONG ISLAND NEW YORK

CITY           SKY/WX    TMP DP  RH WIND       PRES   REMARKS
FARMINGDALE    CLOUDY    30  24  78 CALM      29.61R
ISLIP          CLOUDY    26  22  84 CALM      29.58F
SHIRLEY        CLOUDY    25  23  92 CALM      29.61S
RIVERHEAD        N/A     28  21  74 CALM      29.57S
WESTHAMPTON    CLOUDY    23  22  96 CALM      29.61S
EAST HAMPTON   MOCLDY    24  23  96 CALM      29.60S
MONTAUK POINT    N/A     27  26  96 CALM      29.61S
$$

NYZ052-065-067-100700-
HUDSON VALLEY

CITY           SKY/WX    TMP DP  RH WIND       PRES   REMARKS
WHITE PLAINS   MOCLDY    28  23  81 CALM      29.57F
NEWBURGH       CLOUDY    30  28  93 CALM      29.57
MONTGOMERY     CLOUDY    29  27  92 CALM      29.56S FOG
POUGHKEEPSIE   CLOUDY    31  25  78 CALM      29.58S
ALBANY         PTCLDY    27  22  81 S3        29.55F
$$

NJZ001-105-106-008-010-013-015-019>022-104-100700-
NEW JERSEY

CITY           SKY/WX    TMP DP  RH WIND       PRES   REMARKS
NEWARK/LIBERTY LGT SNOW  32  29  88 W5        29.60F FOG     WCI  27
TETERBORO      CLOUDY    33  26  75 CALM      29.59F
CALDWELL       LGT SNOW  31  28  89 CALM      29.60F FOG
MORRISTOWN     LGT SNOW  30  28  93 CALM      29.60S
SOMERVILLE     CLOUDY    31  29  92 CALM      29.59S FOG
SUSSEX         LGT SNOW  30  27  88 CALM      29.56S FOG
ANDOVER          N/A     30  28  92 CALM      29.56F
TRENTON        CLOUDY    32  30  92 SW3       29.59F FOG
MILLVILLE      CLOUDY    34  32  92 W8        29.63S FOG     WCI  27
ATLANTIC CITY  CLOUDY    33  31  92 W5        29.62R WCI  29
WRIGHTSTOWN    CLOUDY    31  31 100 W2        29.59S
TOMS RIVER     CLOUDY    32  28  86 W5        29.61S WCI  27
BELMAR         CLOUDY    30  25  80 CALM      29.60S
$$

PAZ047>061-062-071-100700-
EASTERN PENNSYLVANIA

CITY           SKY/WX    TMP DP  RH WIND       PRES   REMARKS
PHILADELPHIA   CLOUDY    34  29  82 W9        29.63S WCI  27
ALLENTOWN      CLOUDY    30  28  93 SW6       29.58F FOG     WCI  24
SCRANTON       LGT SNOW  30  28  92 SW7       29.54R FOG     WCI  23
$$

CTZ002-004>006-009-010-012-RIZ004-006-007-MAZ004-011-015-100700-
SOUTHERN NEW ENGLAND
 IN CT

CITY           SKY/WX    TMP DP  RH WIND       PRES   REMARKS
BRADLEY INTL   MOCLDY    22  19  89 CALM      29.57F
HARTFORD       CLOUDY    26  21  81 CALM      29.60S
DANBURY        CLOUDY    25  22  88 CALM      29.59S
WTRBRY/OXFORD  PTCLDY    25  14  63 CALM      29.58R
BRIDGEPORT     CLEAR     28  24  85 CALM      29.60S
MERIDEN        CLOUDY    22  19  89 S3        29.60S
NEW HAVEN      CLEAR     25  20  81 CALM      29.60S
CHESTER        FAIR      25  23  93 CALM      29.58F FOG
GROTON         CLOUDY    25  23  92 CALM      29.60F
WILLIMANTIC    MOCLDY    18  14  84 CALM      29.59F

 IN RI

CITY           SKY/WX    TMP DP  RH WIND       PRES   REMARKS
PROVIDENCE     PTCLDY    19  16  88 W3        29.61S
BLOCK ISLAND   CLOUDY    28  23  80 CALM      29.59S
WESTERLY       CLOUDY    22  20  92 CALM      29.61R

 IN MA

CITY           SKY/WX    TMP DP  RH WIND       PRES   REMARKS
BOSTON         NOT AVBL
WORCESTER      PTCLDY    19  15  84 W5        29.53F WCI  12
WESTFIELD      CLEAR     19  16  88 CALM      29.57F
PROVINCETOWN   CLOUDY    29  22  75 W5        29.61S WCI  24
NANTUCKET      CLOUDY    30  25  81 NE5       29.60S WCI  25
$$

ANZ330-335-338-340-345-350-353-355-100700-
COASTAL MARINE OBSERVATIONS


STATION/POSITION TIME  SKY/WX   TEMP    WIND        PRES    VSBY  WAVE
                                AIR SEA DIR/SP/G                  HT/PER
                 (UTC)          (F)     (DEG/KT/KT) (MB)    (MI)  (FT/S)
NY HARB ENTRANCE 0450            34 43   70/  2/  4 1002.2          4/13
4S FIRE IS       NOT AVBL
20S FIRE ISLAND  0450            35 44   60/  2/  4 1002.3          4/13
GREAT SOUTH BAY  NOT AVBL
23SW MTP         0550            35 45  130/  4/  6 1002.0          5/14
HUDSON CANYON    0450            40 49              1001.5          6/11
KINGS POINT      0500            32 39   CALM  /  1 1001.9
EXECUTION ROCKS  NOT AVBL
CENTRAL LI SOUND 0530            33     160/  4/  4   N/A           0
EASTERN LI SOUND 0500            33 42  210/  2/  4   N/A
ROBBINS REEF     0500            33     260/  4/  4 1001.7
$$


>>>>>>>>>>>>>>>>>>>>>>>>>>>> KEY <<<<<<<<<<<<<<<<<<<<<<<<<<<
>                                                          <
>     SKY/WX - SKY CONDITION/PRESENT WEATHER               <
>     TMP    - TEMPERATURE IN FAHRENHEIT                   <
>     DP     - DEWPOINT IN FAHRENHEIT                      <
>     RH     - RELATIVE HUMIDITY IN PERCENT                <
>     WIND   - DIRECTION AND SPEED IN MPH                  <
>     PRES   - MEAN SEA LEVEL PRESSURE IN INCHES OF HG     <
>     WCI    - WIND CHILL INDEX                            <
>     VSB    - VISIBILITY IN MILES                         <
>     HX     - HEAT INDEX                                  <
>     TC     - TEMPERATURE IN CELSIUS                      <
>     VRB    - VARIABLE WIND DIRECTION                     <
>                                                          <
>>>>>>>>>>>>>>>>>>>>>>>>>>>> KEY <<<<<<<<<<<<<<<<<<<<<<<<<<<






USA.gov is the U.S. government's official web portal to all federal, state and local government web resources and services.